Content
SEND FEEDBACK

Daily
Averages
Monthly
Summary
Canada

QUEBEC CITY AIRPORT, QUEBEC


Home > North America > Canada > Quebec
Elevation: 244 feet     Latitude: 46 48N     Longitude: 71 23W

WEATHER
 
SELECT A DAY
Number of Records: 192,807;   Date Range: 6/30/96 - 9/17/14
 
SHARE

PRINT THIS DATA

[ ← Previous Day ]
WEATHER ALMANAC - APRIL 18, 2013
[ Next Day → ]
[ °C ]   °F
Weather ElementAverageHighLow
Temperature36.8 °F41 °F (11:00 am)30 °F (5:00 am)
Dewpoint23.6 °F34 °F (5:00 pm) (7:00 pm)
Humidity59.8 %87 % (4:27 pm)28 % (11:00 am)
Barometer28.41 in30.45 in (6:00 am) (7:00 pm)
Wind Speed9.7 mph16.1 mph (4:27 pm)
Wind Gust20.7 mph (9:00 am)
Weather ElementAverage
Visibility17.6 mi
Wind DirectionENE (60 °)

Weather ElementTotal
Precipitation---
Heating Degree Days29.5 (Base 65)
Averaged from 33 records on April 18, 2013
WEATHER CONDITIONS BREAKOUT
WIND DIRECTION BREAKOUT
WEATHER BY HOUR - APRIL 18, 2013
[ °C ]   °F
Local TimeTemperatureDewpointHumidityBarometerVisibilityWind DirectionWind SpeedGust SpeedPrecipitationEventsConditions
1:00 AM35.6 °F12.2 °F38 %30.40 in15.0 miNNE (20°)5.8 mphScattered Clouds
2:00 AM32.0 °F15.0 °F35 %30.40 inNorth (10°)2.3 mph
2:00 AM33.8 °F14.0 °F44 %30.40 in15.0 miNNE (20°)4.6 mphPartly Cloudy
3:00 AM32.0 °F14.0 °F48 %30.43 in15.0 miNorth (10°)3.5 mphScattered Clouds
4:00 AM32.0 °F15.8 °F51 %30.43 in15.0 miNE (40°)3.5 mphMostly Cloudy
5:00 AM30.0 °F19.0 °F51 %30.43 inNE (40°)2.3 mph
5:00 AM32.0 °F15.8 °F51 %30.43 in15.0 miNE (50°)6.9 mphMostly Cloudy
6:00 AM32.0 °F17.6 °F55 %30.45 in30.0 miNE (40°)3.5 mphMostly Cloudy
7:00 AM33.8 °F19.4 °F56 %30.45 in30.0 miENE (60°)8.1 mphOvercast
8:00 AM36.0 °F22.0 °F44 %30.43 inEast (90°)10.4 mph
8:00 AM35.6 °F21.2 °F56 %30.43 in30.0 miENE (70°)12.7 mph18.4 mphMostly Cloudy
9:00 AM35.6 °F21.2 °F56 %30.40 in30.0 miENE (70°)15.0 mph20.7 mphMostly Cloudy
10:00 AM37.4 °F21.2 °F52 %30.40 in30.0 miENE (70°)12.7 mph18.4 mphOvercast
11:00 AM41.0 °F19.0 °F28 %30.35 inENE (70°)11.5 mph
11:00 AM39.2 °F21.2 °F49 %30.37 in30.0 miENE (60°)12.7 mph20.7 mphOvercast
12:00 PM41.0 °F21.2 °F45 %30.34 in30.0 miENE (60°)12.7 mph19.6 mphOvercast
1:00 PM41.0 °F23.0 °F49 %30.29 in15.0 miEast (90°)10.4 mph18.4 mphOvercast
2:00 PM41.0 °F24.0 °F39 %30.24 inEast (90°)10.4 mph
2:00 PM41.0 °F23.0 °F49 %30.26 in6.0 miENE (70°)10.4 mph17.3 mphLight Ice Pellets
2:24 PM39.2 °F0.0 °F6.0 miEast (80°)8.1 mphRainLight Rain Showers
3:00 PM39.2 °F28.4 °F65 %30.22 in6.0 miENE (60°)15.0 mphRainLight Rain Showers
4:00 PM37.4 °F32.0 °F81 %30.19 in12.0 miNE (40°)13.8 mphRainLight Rain Showers
4:27 PM35.6 °F32.0 °F87 %8.0 miEast (80°)16.1 mphRainLight Rain Showers
5:00 PM37.0 °F34.0 °F84 %30.09 inEast (80°)8.1 mph
5:00 PM37.4 °F32.0 °F81 %30.10 in12.0 miENE (60°)13.8 mphOvercast
6:00 PM35.6 °F32.0 °F87 %30.06 in15.0 miENE (60°)15.0 mph20.7 mphOvercast
7:00 PM37.4 °F32.0 °F81 %30.01 in15.0 miENE (70°)13.8 mphOvercast
8:00 PM39.0 °F34.0 °F76 %29.96 inEast (80°)8.1 mph
8:00 PM39.2 °F32.0 °F75 %29.97 in15.0 miENE (70°)10.4 mph17.3 mphOvercast
9:00 PM39.2 °F32.0 °F75 %29.94 in15.0 miENE (70°)10.4 mphOvercast
10:00 PM39.2 °F32.0 °F75 %29.90 in15.0 miENE (70°)11.5 mphOvercast
11:00 PM39.0 °F34.0 °F74 %29.85 inENE (70°)5.8 mph
11:00 PM39.2 °F32.0 °F75 %29.86 in15.0 miENE (60°)9.2 mphOvercast
Hourly data recorded from CYQB, located miles away from Quebec City Airport, Quebec







STORIES FROM OUR PARTNERS